SIA308 EDDF-WSSS

Flight info

Callsign SIA308
Flight time N/A
Altitude 31000
Route SULUS6F/25C SULUS Z650 VEMUT/N0486F330 DCT NELPA DCT PEPIK DCT AMRAX/N0489F350 DCT NARKA DCT RULES DCT ELROM DCT MOBRA DCT DENAK DCT DINRO DCT UDROS DCT ABSAX DCT REBLO P130 DOGAM/N0490F370 P130 MAMED B449 RANAH L750 ZB G202 RK P628 IBANI L510 GURVI T1 VIBAL/N0495F390 T1 BBS L759 PUT B579 VPL Y503 RINBA Y507 MAKNA Y511 TOPOR A464 ARAMA LELIB3B
Aircraft A388/J-SADE2E3FGHIJ3J4J5M1RWXY/LB1D1

Departure

Time 2026-05-04 07:54
Airport Frankfurt Main Airport (EDDF)

Arrival

Time N/A
Airport Singapore Changi Airport (WSSS)
Time Latitude Longitude Altitude Speed Heading
2026-05-04 07:26 50.04762 8.57761 369 ft 0 kts 271°
2026-05-04 07:42 50.04762 8.57780 366 ft 2 kts 270°
2026-05-04 07:43 50.04762 8.57806 366 ft 2 kts 270°
2026-05-04 07:43 50.04762 8.57831 366 ft 2 kts 270°
2026-05-04 07:43 50.04762 8.57857 366 ft 2 kts 269°
2026-05-04 07:43 50.04763 8.57882 366 ft 2 kts 267°
2026-05-04 07:44 50.04765 8.57907 366 ft 2 kts 261°
2026-05-04 07:44 50.04769 8.57932 366 ft 2 kts 252°
2026-05-04 07:44 50.04775 8.57956 371 ft 2 kts 248°
2026-05-04 07:44 50.04781 8.57979 367 ft 2 kts 247°
2026-05-04 07:45 50.04787 8.58003 369 ft 2 kts 247°
2026-05-04 07:45 50.04794 8.58026 369 ft 2 kts 247°
2026-05-04 07:45 50.04800 8.58049 367 ft 2 kts 247°
2026-05-04 07:45 50.04803 8.58061 369 ft 1 kts 247°
2026-05-04 07:46 50.04803 8.58062 369 ft 0 kts 247°
2026-05-04 07:47 50.04800 8.58048 367 ft 3 kts 247°
2026-05-04 07:49 50.04600 8.58022 373 ft 7 kts 153°
2026-05-04 07:49 50.04569 8.58072 371 ft 6 kts 106°
2026-05-04 07:49 50.04574 8.58147 371 ft 8 kts 72°
2026-05-04 07:50 50.04597 8.58247 370 ft 11 kts 70°
2026-05-04 07:50 50.04626 8.58371 369 ft 13 kts 70°
2026-05-04 07:50 50.04653 8.58483 370 ft 9 kts 69°
2026-05-04 07:50 50.04650 8.58542 373 ft 5 kts 133°
2026-05-04 07:51 50.04618 8.58575 368 ft 6 kts 160°
2026-05-04 07:51 50.04577 8.58597 371 ft 6 kts 160°
2026-05-04 07:51 50.04541 8.58617 374 ft 5 kts 160°
2026-05-04 07:51 50.04505 8.58632 376 ft 4 kts 188°
2026-05-04 07:52 50.04503 8.58632 376 ft 1 kts 197°
2026-05-04 07:52 50.04496 8.58625 376 ft 0 kts 230°
2026-05-04 07:52 50.04493 8.58618 375 ft 0 kts 251°
2026-05-04 07:53 50.04481 8.58562 374 ft 22 kts 251°
2026-05-04 07:54 50.01178 8.49446 1830 ft 171 kts 200°
2026-05-04 07:55 49.99997 8.48949 1976 ft 184 kts 195°
2026-05-04 07:55 49.98676 8.48884 1968 ft 200 kts 165°
2026-05-04 07:55 49.97501 8.50072 2063 ft 210 kts 131°
2026-05-04 07:55 49.96784 8.52086 2120 ft 216 kts 117°
2026-05-04 07:56 49.96090 8.54191 2158 ft 221 kts 120°
2026-05-04 07:56 49.95336 8.56328 2170 ft 234 kts 121°
2026-05-04 07:56 49.94527 8.58654 2327 ft 256 kts 115°
2026-05-04 07:56 49.94034 8.61384 2800 ft 266 kts 98°
2026-05-04 07:57 49.93927 8.64259 3342 ft 270 kts 94°
2026-05-04 07:57 49.93819 8.67198 3931 ft 273 kts 99°
2026-05-04 07:57 49.93200 8.69958 4631 ft 271 kts 126°
2026-05-04 07:57 49.91898 8.71970 5247 ft 270 kts 146°
2026-05-04 07:58 49.90339 8.73612 5856 ft 272 kts 149°
2026-05-04 07:58 49.88805 8.75393 6462 ft 278 kts 137°
2026-05-04 07:58 49.87601 8.77760 7062 ft 284 kts 122°
2026-05-04 07:58 49.86646 8.80458 7680 ft 286 kts 121°
2026-05-04 07:59 49.85671 8.83174 8261 ft 290 kts 122°
2026-05-04 07:59 49.84684 8.85896 8909 ft 291 kts 122°
2026-05-04 07:59 49.83684 8.88644 9513 ft 295 kts 122°
2026-05-04 07:59 49.82673 8.91420 10104 ft 297 kts 122°
2026-05-04 08:00 49.81992 8.93287 10327 ft 305 kts 122°
2026-05-04 08:00 49.80917 8.96227 10479 ft 322 kts 122°
2026-05-04 08:00 49.79789 8.99314 10614 ft 337 kts 122°
2026-05-04 08:02 49.73795 9.24288 13921 ft 369 kts 106°
2026-05-04 08:02 49.73165 9.28149 14399 ft 370 kts 107°
2026-05-04 08:02 49.72531 9.32025 14863 ft 372 kts 107°
2026-05-04 08:03 49.71895 9.35919 15300 ft 375 kts 107°
2026-05-04 08:03 49.71254 9.39838 15772 ft 377 kts 107°
2026-05-04 08:03 49.70608 9.43783 16218 ft 379 kts 107°
2026-05-04 08:03 49.69959 9.47737 16655 ft 382 kts 107°
2026-05-04 08:04 49.69305 9.51722 17078 ft 384 kts 107°
2026-05-04 08:04 49.68644 9.55732 17515 ft 386 kts 107°
2026-05-04 08:04 49.67981 9.59759 17934 ft 389 kts 107°
2026-05-04 08:04 49.67381 9.63848 18317 ft 394 kts 100°
2026-05-04 08:05 49.67287 9.68099 18691 ft 400 kts 88°
2026-05-04 08:05 49.67780 9.72348 19035 ft 406 kts 76°
2026-05-04 08:05 49.68550 9.76486 19364 ft 408 kts 76°
2026-05-04 08:05 49.69312 9.80733 19705 ft 411 kts 76°
2026-05-04 08:06 49.70065 9.85014 20055 ft 413 kts 76°
2026-05-04 08:06 49.70816 9.89306 20383 ft 415 kts 76°
2026-05-04 08:06 49.71762 9.93538 20702 ft 419 kts 67°
2026-05-04 08:06 49.73113 9.97542 21026 ft 422 kts 58°
2026-05-04 08:08 49.78012 10.27633 23304 ft 433 kts 90°
2026-05-04 08:08 49.78100 10.32304 23605 ft 435 kts 89°
2026-05-04 08:10 49.78915 10.70353 25852 ft 450 kts 90°
2026-05-04 08:11 49.79011 10.75202 26147 ft 452 kts 90°
2026-05-04 08:11 49.79196 10.84983 26758 ft 457 kts 90°
2026-05-04 08:11 49.79287 10.89908 27078 ft 459 kts 90°
2026-05-04 08:12 49.79375 10.94845 27424 ft 460 kts 90°
2026-05-04 08:12 49.79462 10.99817 27715 ft 463 kts 90°
2026-05-04 08:12 49.79547 11.04814 28037 ft 465 kts 90°
2026-05-04 08:12 49.79631 11.09837 28351 ft 468 kts 90°
2026-05-04 08:13 49.79713 11.14883 28676 ft 470 kts 90°
2026-05-04 08:13 49.79793 11.19956 28996 ft 473 kts 90°
2026-05-04 08:13 49.79871 11.24994 29309 ft 475 kts 90°
2026-05-04 08:13 49.79947 11.30119 29616 ft 478 kts 90°
2026-05-04 08:14 49.80022 11.35233 29931 ft 480 kts 90°
2026-05-04 08:14 49.80094 11.40420 30249 ft 482 kts 90°
2026-05-04 08:14 49.80165 11.45606 30586 ft 483 kts 90°
2026-05-04 08:16 49.80602 11.82491 32570 ft 497 kts 90°
2026-05-04 08:16 49.80655 11.87856 32863 ft 498 kts 90°
2026-05-04 08:16 49.80706 11.93231 33059 ft 502 kts 90°
2026-05-04 08:17 49.80802 12.04230 33033 ft 518 kts 90°
2026-05-04 08:17 49.80891 12.15306 33031 ft 518 kts 91°
2026-05-04 08:19 49.79518 12.53985 33028 ft 512 kts 109°
2026-05-04 08:19 49.78435 12.59234 33023 ft 511 kts 109°
2026-05-04 08:20 49.76323 12.69760 33020 ft 511 kts 109°
2026-05-04 08:20 49.74212 12.80263 33002 ft 511 kts 109°
2026-05-04 08:21 49.72092 12.90706 33012 ft 512 kts 109°
2026-05-04 08:21 49.69946 13.01207 33014 ft 513 kts 109°
2026-05-04 08:22 49.67789 13.11707 33028 ft 513 kts 109°
2026-05-04 08:24 49.59071 13.53595 33057 ft 513 kts 110°
2026-05-04 08:24 49.56864 13.64060 33027 ft 513 kts 110°
2026-05-04 08:25 49.54648 13.74516 33020 ft 513 kts 110°
2026-05-04 08:25 49.52425 13.84948 33007 ft 513 kts 110°
2026-05-04 08:27 49.43448 14.26551 33008 ft 512 kts 110°
2026-05-04 08:28 49.41180 14.36932 33017 ft 512 kts 110°
2026-05-04 08:28 49.38904 14.47293 33014 ft 512 kts 110°
2026-05-04 08:29 49.36637 14.57567 33010 ft 512 kts 110°
2026-05-04 08:31 49.27433 14.98781 33020 ft 510 kts 110°
2026-05-04 08:33 49.18185 15.39715 33019 ft 509 kts 110°
2026-05-04 08:35 49.08783 15.80535 33030 ft 509 kts 110°
2026-05-04 08:35 49.06408 15.90724 33033 ft 510 kts 110°
2026-05-04 08:37 48.98048 16.26212 33046 ft 509 kts 110°
2026-05-04 08:38 48.95638 16.36339 33060 ft 511 kts 110°
2026-05-04 08:38 48.94424 16.41418 33442 ft 511 kts 111°
2026-05-04 08:38 48.93207 16.46495 33886 ft 510 kts 110°
2026-05-04 08:40 48.84710 16.81666 36377 ft 504 kts 111°
2026-05-04 08:40 48.83508 16.86593 36654 ft 504 kts 110°
2026-05-04 08:40 48.82289 16.91580 36975 ft 503 kts 110°
2026-05-04 08:41 48.81072 16.96548 37298 ft 502 kts 111°
2026-05-04 08:41 48.79853 17.01515 37483 ft 504 kts 111°
2026-05-04 08:41 48.78627 17.06495 37782 ft 503 kts 111°
2026-05-04 08:41 48.77281 17.11372 38213 ft 500 kts 115°
2026-05-04 08:42 48.75868 17.16188 38479 ft 500 kts 114°
2026-05-04 08:42 48.74467 17.21026 38666 ft 501 kts 114°
2026-05-04 08:42 48.73071 17.25859 38983 ft 499 kts 114°
2026-05-04 08:43 48.70264 17.35535 39069 ft 504 kts 114°
2026-05-04 08:43 48.67454 17.45156 39090 ft 496 kts 114°
2026-05-04 08:44 48.64661 17.54670 39093 ft 498 kts 114°
2026-05-04 08:46 48.53365 17.92786 39104 ft 495 kts 114°
2026-05-04 08:46 48.50521 18.02290 39092 ft 498 kts 114°
2026-05-04 08:47 48.47677 18.11757 39099 ft 495 kts 114°
2026-05-04 08:47 48.44821 18.21233 39095 ft 495 kts 114°
2026-05-04 08:48 48.42449 18.29070 39105 ft 497 kts 114°
2026-05-04 08:48 48.39107 18.40068 39104 ft 495 kts 114°
2026-05-04 08:49 48.36240 18.49468 39111 ft 493 kts 114°
2026-05-04 08:50 48.26658 18.80628 39134 ft 493 kts 114°
2026-05-04 08:51 48.23767 18.89953 39124 ft 493 kts 114°
2026-05-04 08:51 48.20872 18.99256 39132 ft 493 kts 114°
2026-05-04 08:52 48.17966 19.08559 39127 ft 492 kts 114°
2026-05-04 08:52 48.15055 19.17843 39140 ft 492 kts 114°
2026-05-04 08:54 48.03301 19.54682 39134 ft 491 kts 115°
2026-05-04 08:55 48.00320 19.63859 39138 ft 491 kts 115°
2026-05-04 08:55 47.97334 19.73018 39161 ft 491 kts 115°
2026-05-04 09:01 47.65690 20.68149 39163 ft 488 kts 115°
2026-05-04 09:01 47.62637 20.77145 39165 ft 488 kts 115°
2026-05-04 09:02 47.59583 20.86113 39160 ft 488 kts 115°
2026-05-04 09:02 47.56512 20.95098 39165 ft 489 kts 115°
2026-05-04 09:03 47.53435 21.04071 39167 ft 489 kts 115°
2026-05-04 09:03 47.50337 21.13073 39170 ft 492 kts 115°
2026-05-04 09:04 47.47258 21.21987 39175 ft 489 kts 115°
2026-05-04 09:04 47.44159 21.30932 39181 ft 490 kts 115°
2026-05-04 09:05 47.41046 21.39885 39172 ft 490 kts 115°
2026-05-04 09:05 47.37927 21.48825 39178 ft 490 kts 115°
2026-05-04 09:06 47.34803 21.57750 39183 ft 490 kts 115°
2026-05-04 09:08 47.22899 21.93689 39172 ft 486 kts 108°
2026-05-04 09:08 47.20544 22.03005 39169 ft 487 kts 111°
2026-05-04 09:09 47.17392 22.11762 39166 ft 489 kts 121°
2026-05-04 09:09 47.13540 22.20009 39164 ft 490 kts 122°
2026-05-04 09:10 47.09682 22.28272 39171 ft 490 kts 122°
2026-05-04 09:10 47.05820 22.36528 39165 ft 491 kts 122°
2026-05-04 09:11 47.01938 22.44796 39161 ft 492 kts 122°
2026-05-04 09:11 46.98050 22.53049 39157 ft 492 kts 122°
2026-05-04 09:12 46.94153 22.61297 39161 ft 492 kts 122°
2026-05-04 09:14 46.78560 22.94060 39157 ft 491 kts 123°
2026-05-04 09:14 46.74654 23.02206 39172 ft 490 kts 123°
2026-05-04 09:15 46.70757 23.10357 39149 ft 489 kts 122°
2026-05-04 09:15 46.66880 23.18497 39132 ft 488 kts 122°
2026-05-04 09:17 46.49415 23.54811 39133 ft 485 kts 122°
2026-05-04 09:18 46.45559 23.62762 39145 ft 485 kts 122°
2026-05-04 09:18 46.41673 23.70751 39147 ft 484 kts 122°
2026-05-04 09:19 46.37785 23.78725 39119 ft 484 kts 123°
2026-05-04 09:19 46.33896 23.86678 39119 ft 484 kts 123°
2026-05-04 09:20 46.29991 23.94638 39122 ft 484 kts 123°
2026-05-04 09:20 46.26090 24.02570 39121 ft 484 kts 123°
2026-05-04 09:21 46.22185 24.10487 39122 ft 484 kts 123°
2026-05-04 09:21 46.18270 24.18402 39122 ft 484 kts 123°
2026-05-04 09:22 46.14351 24.26303 39120 ft 484 kts 123°
2026-05-04 09:22 46.10436 24.34172 39121 ft 484 kts 123°
2026-05-04 09:23 46.06503 24.42058 39121 ft 484 kts 123°
2026-05-04 09:23 46.02591 24.49877 39133 ft 484 kts 123°
2026-05-04 09:25 45.86783 24.81262 39130 ft 484 kts 123°
2026-05-04 09:26 45.82783 24.89030 39121 ft 484 kts 124°
2026-05-04 09:26 45.78745 24.96753 39118 ft 484 kts 124°
2026-05-04 09:27 45.74703 25.04490 39115 ft 484 kts 124°
2026-05-04 09:27 45.70669 25.12199 39130 ft 483 kts 124°
2026-05-04 09:28 45.66664 25.19835 39128 ft 483 kts 124°
2026-05-04 09:28 45.62627 25.27509 39121 ft 482 kts 125°
2026-05-04 09:29 45.58588 25.35165 39105 ft 482 kts 125°
2026-05-04 09:29 45.54555 25.42792 39116 ft 480 kts 125°
2026-05-04 09:30 45.50525 25.50389 39109 ft 480 kts 125°
2026-05-04 09:30 45.46498 25.57961 39097 ft 479 kts 124°
2026-05-04 09:31 45.42470 25.65518 39080 ft 479 kts 124°
2026-05-04 09:31 45.38444 25.73048 39113 ft 477 kts 124°
2026-05-04 09:32 45.34415 25.80569 39072 ft 477 kts 125°
2026-05-04 09:34 45.18308 26.10420 39080 ft 477 kts 125°
2026-05-04 09:34 45.14264 26.17868 39075 ft 477 kts 126°
2026-05-04 09:35 45.10215 26.25303 39060 ft 477 kts 125°
2026-05-04 09:35 45.06155 26.32740 39063 ft 478 kts 125°
2026-05-04 09:37 44.90780 26.61437 39064 ft 480 kts 124°
2026-05-04 09:38 44.86781 26.68987 39070 ft 481 kts 125°
2026-05-04 09:38 44.82759 26.76548 39081 ft 482 kts 125°
2026-05-04 09:39 44.78728 26.84107 39092 ft 483 kts 126°
2026-05-04 09:39 44.74691 26.91655 39093 ft 482 kts 126°
2026-05-04 09:40 44.70651 26.99189 39081 ft 483 kts 126°
2026-05-04 09:40 44.66606 27.06714 39081 ft 482 kts 126°
2026-05-04 09:42 44.50424 27.36618 39101 ft 480 kts 126°
2026-05-04 09:43 44.46375 27.44054 39095 ft 479 kts 126°
2026-05-04 09:43 44.42332 27.51458 39091 ft 478 kts 126°
2026-05-04 09:44 44.38293 27.58836 39074 ft 477 kts 126°
2026-05-04 09:46 44.22230 27.87994 39061 ft 473 kts 126°
2026-05-04 09:46 44.18211 27.95243 39061 ft 472 kts 126°
2026-05-04 09:47 44.14191 28.02478 39059 ft 471 kts 127°
2026-05-04 09:49 43.98135 28.31189 39061 ft 470 kts 126°
2026-05-04 09:51 43.84075 28.56100 39025 ft 468 kts 126°
2026-05-04 09:51 43.80059 28.63177 39022 ft 467 kts 126°
2026-05-04 09:52 43.76039 28.70242 39023 ft 467 kts 126°
2026-05-04 09:52 43.72014 28.77305 39030 ft 467 kts 126°
2026-05-04 09:53 43.68030 28.84402 39030 ft 467 kts 124°
2026-05-04 09:53 43.64286 28.91659 39038 ft 467 kts 123°
2026-05-04 09:54 43.60509 28.98955 39030 ft 467 kts 124°
2026-05-04 09:54 43.56699 29.06225 39026 ft 467 kts 124°
2026-05-04 09:55 43.52882 29.13472 39021 ft 467 kts 124°
2026-05-04 09:55 43.49059 29.20711 39035 ft 467 kts 124°
2026-05-04 09:56 43.45223 29.27960 39011 ft 468 kts 124°
2026-05-04 09:56 43.41394 29.35176 39003 ft 468 kts 124°
2026-05-04 09:57 43.37551 29.42404 39005 ft 468 kts 124°
2026-05-04 09:57 43.33701 29.49625 39002 ft 469 kts 124°
2026-05-04 09:58 43.29867 29.56799 39000 ft 469 kts 124°
2026-05-04 09:58 43.25998 29.64020 38994 ft 469 kts 124°
2026-05-04 10:00 43.10476 29.92815 38993 ft 469 kts 124°
2026-05-04 10:04 42.83080 30.42966 38963 ft 472 kts 124°
2026-05-04 10:04 42.79128 30.50134 38944 ft 474 kts 124°
2026-05-04 10:05 42.75452 30.57550 38949 ft 471 kts 116°
2026-05-04 10:05 42.72789 30.65659 38934 ft 469 kts 107°
2026-05-04 10:06 42.71036 30.74171 38945 ft 468 kts 103°
2026-05-04 10:06 42.69376 30.82736 38933 ft 469 kts 103°
2026-05-04 10:08 42.63455 31.12673 38913 ft 471 kts 103°
2026-05-04 10:08 42.61740 31.21261 38915 ft 471 kts 103°
2026-05-04 10:09 42.60015 31.29862 38914 ft 472 kts 103°
2026-05-04 10:09 42.58282 31.38467 38918 ft 472 kts 103°
2026-05-04 10:10 42.56538 31.47090 38888 ft 474 kts 104°
2026-05-04 10:10 42.54794 31.55677 38907 ft 475 kts 104°
2026-05-04 10:11 42.53034 31.64304 38892 ft 476 kts 104°
2026-05-04 10:11 42.51263 31.72952 38891 ft 477 kts 104°
2026-05-04 10:12 42.49477 31.81632 38887 ft 479 kts 104°
2026-05-04 10:12 42.47680 31.90331 38883 ft 480 kts 104°
2026-05-04 10:13 42.45872 31.99042 38888 ft 480 kts 104°
2026-05-04 10:13 42.44068 32.07701 38883 ft 480 kts 105°
2026-05-04 10:14 42.42251 32.16385 38900 ft 479 kts 105°
2026-05-04 10:16 42.34946 32.50939 38850 ft 476 kts 105°
2026-05-04 10:16 42.33303 32.59603 38846 ft 475 kts 98°
2026-05-04 10:17 42.32493 32.68453 38846 ft 474 kts 96°
2026-05-04 10:19 42.29433 33.03911 38856 ft 477 kts 96°
2026-05-04 10:19 42.28652 33.12827 38865 ft 477 kts 96°
2026-05-04 10:20 42.27865 33.21726 38857 ft 477 kts 96°
2026-05-04 10:20 42.27068 33.30605 38837 ft 477 kts 97°
2026-05-04 10:21 42.26263 33.39475 38840 ft 476 kts 96°
2026-05-04 10:21 42.25451 33.48351 38864 ft 475 kts 97°
2026-05-04 10:22 42.24225 33.61605 38824 ft 477 kts 97°
2026-05-04 10:23 42.23396 33.70471 38841 ft 477 kts 97°
2026-05-04 10:25 42.19990 34.06125 38854 ft 480 kts 98°
2026-05-04 10:25 42.19119 34.15058 38857 ft 480 kts 98°
2026-05-04 10:26 42.18242 34.23976 38852 ft 479 kts 98°
2026-05-04 10:26 42.17366 34.32816 38822 ft 479 kts 98°
2026-05-04 10:27 42.16478 34.41701 38847 ft 478 kts 98°
2026-05-04 10:27 42.15729 34.49145 38843 ft 477 kts 98°
2026-05-04 10:28 42.14836 34.57952 38808 ft 478 kts 98°
2026-05-04 10:28 42.13928 34.66838 38785 ft 479 kts 98°
2026-05-04 10:29 42.13012 34.75728 38794 ft 480 kts 98°
2026-05-04 10:29 42.12086 34.84658 38821 ft 481 kts 98°
2026-05-04 10:30 42.11149 34.93613 38815 ft 484 kts 99°
2026-05-04 10:30 42.10201 35.02604 38827 ft 486 kts 99°
2026-05-04 10:31 42.09241 35.11643 38837 ft 488 kts 99°
2026-05-04 10:32 42.05808 35.43411 38863 ft 491 kts 99°
2026-05-04 10:33 42.04809 35.52502 38862 ft 491 kts 100°
2026-05-04 10:33 42.03804 35.61579 38849 ft 490 kts 100°
2026-05-04 10:34 42.02794 35.70631 38844 ft 489 kts 100°
2026-05-04 10:34 42.01778 35.79670 38838 ft 488 kts 100°
2026-05-04 10:35 42.00759 35.88672 38832 ft 487 kts 100°
2026-05-04 10:35 41.99734 35.97664 38823 ft 486 kts 100°
2026-05-04 10:36 41.98704 36.06635 38791 ft 486 kts 100°
2026-05-04 10:36 41.97664 36.15625 38791 ft 487 kts 101°
2026-05-04 10:37 41.96616 36.24620 38809 ft 488 kts 101°
2026-05-04 10:37 41.95558 36.33638 38816 ft 489 kts 101°
2026-05-04 10:39 41.91788 36.65290 38846 ft 493 kts 101°
2026-05-04 10:40 41.90688 36.74380 38858 ft 493 kts 101°
2026-05-04 10:40 41.89582 36.83463 38850 ft 493 kts 102°
2026-05-04 10:41 41.88467 36.92550 38852 ft 493 kts 102°
2026-05-04 10:41 41.87346 37.01630 38859 ft 495 kts 102°
2026-05-04 10:42 41.86215 37.10729 38860 ft 493 kts 102°
2026-05-04 10:42 41.85082 37.19788 38856 ft 491 kts 103°
2026-05-04 10:43 41.83953 37.28744 38846 ft 489 kts 103°
2026-05-04 10:45 41.79370 37.64535 38820 ft 485 kts 103°
2026-05-04 10:45 41.78211 37.73443 38820 ft 485 kts 103°
2026-05-04 10:46 41.77045 37.82347 38823 ft 486 kts 103°
2026-05-04 10:46 41.75871 37.91264 38831 ft 486 kts 104°
2026-05-04 10:47 41.74690 38.00171 38841 ft 486 kts 104°
2026-05-04 10:47 41.73500 38.09087 38837 ft 486 kts 104°
2026-05-04 10:49 41.68678 38.44695 38860 ft 487 kts 104°
2026-05-04 10:50 41.67455 38.53596 38861 ft 486 kts 104°
2026-05-04 10:52 41.62512 38.89022 38837 ft 482 kts 104°
2026-05-04 10:52 41.61264 38.97837 38826 ft 482 kts 104°
2026-05-04 10:54 41.56213 39.32995 38847 ft 483 kts 105°
2026-05-04 10:56 41.51028 39.68283 38871 ft 486 kts 105°
2026-05-04 10:57 41.49710 39.77134 38877 ft 487 kts 105°
2026-05-04 10:57 41.48383 39.85991 38881 ft 487 kts 105°
2026-05-04 10:58 41.47048 39.94852 38884 ft 487 kts 105°
2026-05-04 10:58 41.45707 40.03705 38871 ft 487 kts 105°
2026-05-04 10:59 41.44362 40.12543 38877 ft 486 kts 105°
2026-05-04 10:59 41.43010 40.21372 38876 ft 486 kts 105°
2026-05-04 11:00 41.41651 40.30193 38864 ft 486 kts 105°
2026-05-04 11:02 41.36151 40.65447 38869 ft 488 kts 105°
2026-05-04 11:05 41.25400 41.32304 38880 ft 495 kts 107°
2026-05-04 11:06 41.23927 41.41253 38873 ft 495 kts 108°
2026-05-04 11:06 41.22452 41.50175 38840 ft 494 kts 108°
2026-05-04 11:10 41.11933 42.12537 38805 ft 497 kts 108°
2026-05-04 11:12 41.05725 42.48355 38806 ft 499 kts 108°
2026-05-04 11:12 41.04154 42.57310 38838 ft 499 kts 108°
2026-05-04 11:13 41.02575 42.66266 38839 ft 499 kts 108°
2026-05-04 11:13 41.01256 42.73706 38796 ft 499 kts 108°
2026-05-04 11:14 40.99406 42.84102 38824 ft 500 kts 108°
2026-05-04 11:16 40.93202 43.18544 38849 ft 504 kts 109°
2026-05-04 11:16 40.91568 43.27532 38860 ft 505 kts 109°
2026-05-04 11:17 40.89918 43.36585 38857 ft 506 kts 109°
2026-05-04 11:19 40.83331 43.72809 38871 ft 511 kts 105°
2026-05-04 11:19 40.82312 43.82118 38860 ft 513 kts 103°
2026-05-04 11:20 40.81297 43.91431 38871 ft 512 kts 104°
2026-05-04 11:20 40.80210 44.00722 38857 ft 512 kts 104°
2026-05-04 11:22 40.75725 44.37803 38867 ft 513 kts 104°
2026-05-04 11:23 40.74574 44.47149 38892 ft 516 kts 105°
2026-05-04 11:25 40.70504 44.79759 38856 ft 517 kts 105°
2026-05-04 11:25 40.69318 44.89110 38847 ft 518 kts 105°
2026-05-04 11:27 40.63871 45.31285 38813 ft 520 kts 105°
2026-05-04 11:28 40.62643 45.40625 38827 ft 522 kts 105°
2026-05-04 11:28 40.61395 45.50051 38839 ft 523 kts 105°
2026-05-04 11:29 40.60139 45.59487 38822 ft 524 kts 105°
2026-05-04 11:29 40.58872 45.68947 38842 ft 526 kts 105°
2026-05-04 11:33 40.49750 46.35277 38873 ft 524 kts 106°
2026-05-04 11:33 40.48424 46.44696 38861 ft 525 kts 106°
2026-05-04 11:34 40.47084 46.54138 38865 ft 526 kts 106°
2026-05-04 11:34 40.45745 46.63519 38873 ft 526 kts 106°
2026-05-04 11:35 40.44389 46.72959 38860 ft 526 kts 106°
2026-05-04 11:35 40.43025 46.82397 38863 ft 527 kts 107°
2026-05-04 11:36 40.41651 46.91852 38883 ft 527 kts 107°
2026-05-04 11:36 40.40269 47.01301 38891 ft 527 kts 107°
2026-05-04 11:37 40.38879 47.10751 38894 ft 528 kts 107°
2026-05-04 11:37 40.37479 47.20208 38870 ft 529 kts 107°
2026-05-04 11:38 40.36070 47.29675 38874 ft 529 kts 107°
2026-05-04 11:38 40.34652 47.39143 38878 ft 529 kts 107°
2026-05-04 11:39 40.33223 47.48629 38867 ft 530 kts 107°
2026-05-04 11:41 40.28155 47.81837 38878 ft 533 kts 107°
2026-05-04 11:41 40.26682 47.91362 38882 ft 534 kts 107°
2026-05-04 11:42 40.25203 48.00880 38881 ft 534 kts 107°
2026-05-04 11:42 40.23709 48.10427 38886 ft 534 kts 107°
2026-05-04 11:43 40.22211 48.19956 38883 ft 534 kts 107°
2026-05-04 11:43 40.20703 48.29487 38882 ft 534 kts 107°
2026-05-04 11:44 40.19187 48.39016 38872 ft 534 kts 107°
2026-05-04 11:44 40.17676 48.48468 38856 ft 534 kts 107°
2026-05-04 11:45 40.16146 48.57982 38859 ft 535 kts 107°
2026-05-04 11:45 40.14608 48.67490 38862 ft 535 kts 107°
2026-05-04 11:46 40.13064 48.77004 38864 ft 535 kts 107°
2026-05-04 11:46 40.11501 48.86529 38854 ft 536 kts 107°
2026-05-04 11:47 40.09933 48.96043 38861 ft 536 kts 107°
2026-05-04 11:47 40.08361 49.05560 38864 ft 536 kts 107°
2026-05-04 11:48 40.06779 49.15070 38865 ft 536 kts 107°
2026-05-04 11:48 40.05191 49.24566 38857 ft 535 kts 107°
2026-05-04 11:49 40.03594 49.34065 38862 ft 535 kts 107°
2026-05-04 11:49 40.02002 49.43486 38860 ft 535 kts 107°
2026-05-04 11:50 40.00391 49.52961 38861 ft 535 kts 107°
2026-05-04 11:50 39.98774 49.62424 38843 ft 536 kts 107°
2026-05-04 11:51 39.97146 49.71905 38851 ft 536 kts 107°
2026-05-04 11:51 39.95508 49.81396 38857 ft 537 kts 107°
2026-05-04 11:52 39.93857 49.90910 38858 ft 538 kts 107°
2026-05-04 11:52 39.92199 50.00418 38871 ft 538 kts 107°
2026-05-04 11:53 39.90533 50.09920 38871 ft 538 kts 107°
2026-05-04 11:53 39.88857 50.19429 38866 ft 539 kts 107°
2026-05-04 11:55 39.82081 50.57395 38877 ft 539 kts 107°
2026-05-04 11:56 39.80366 50.66885 38874 ft 538 kts 107°
2026-05-04 11:56 39.78644 50.76366 38868 ft 538 kts 107°
2026-05-04 11:57 39.76917 50.85826 38868 ft 538 kts 107°
2026-05-04 11:57 39.75180 50.95294 38856 ft 538 kts 107°
2026-05-04 11:58 39.73448 51.04689 38864 ft 538 kts 107°
2026-05-04 11:58 39.71698 51.14133 38863 ft 538 kts 107°
2026-05-04 11:59 39.69940 51.23577 38866 ft 538 kts 107°
2026-05-04 11:59 39.68173 51.33023 38858 ft 538 kts 107°
2026-05-04 12:00 39.66399 51.42466 38867 ft 539 kts 107°
2026-05-04 12:00 39.64627 51.51911 38873 ft 539 kts 105°
2026-05-04 12:01 39.63269 51.61511 38870 ft 542 kts 102°
2026-05-04 12:02 39.58625 51.95087 38872 ft 542 kts 103°
2026-05-04 12:03 39.57246 52.04695 38865 ft 542 kts 103°
2026-05-04 12:03 39.55858 52.14305 38867 ft 542 kts 103°
2026-05-04 12:04 39.54697 52.22303 38868 ft 543 kts 103°
2026-05-04 12:04 39.53295 52.31907 38867 ft 543 kts 103°
2026-05-04 12:05 39.51882 52.41522 38852 ft 543 kts 103°
2026-05-04 12:05 39.50462 52.51133 38856 ft 543 kts 103°
2026-05-04 12:06 39.49032 52.60758 38856 ft 544 kts 103°
2026-05-04 12:06 39.47594 52.70367 38861 ft 544 kts 104°
2026-05-04 12:07 39.46155 52.79934 38848 ft 545 kts 103°
2026-05-04 12:07 39.44699 52.89556 38856 ft 545 kts 103°
2026-05-04 12:08 39.43231 52.99203 38865 ft 546 kts 103°
2026-05-04 12:08 39.41755 53.08843 38865 ft 546 kts 103°
2026-05-04 12:09 39.40270 53.18485 38851 ft 546 kts 103°
2026-05-04 12:09 39.38778 53.28123 38854 ft 547 kts 103°
2026-05-04 12:10 39.37275 53.37767 38861 ft 548 kts 104°
2026-05-04 12:10 39.35774 53.47349 38870 ft 547 kts 103°
2026-05-04 12:11 39.34257 53.56981 38854 ft 547 kts 103°
2026-05-04 12:11 39.32729 53.66626 38857 ft 548 kts 103°
2026-05-04 12:12 39.31193 53.76263 38853 ft 548 kts 103°
2026-05-04 12:12 39.29649 53.85903 38834 ft 548 kts 103°
2026-05-04 12:14 39.23415 54.24276 38831 ft 547 kts 103°
2026-05-04 12:15 39.21833 54.33880 38840 ft 546 kts 103°
2026-05-04 12:15 39.20247 54.43461 38842 ft 546 kts 103°
2026-05-04 12:16 39.18657 54.53027 38848 ft 545 kts 103°
2026-05-04 12:16 39.17059 54.62582 38828 ft 544 kts 104°
2026-05-04 12:17 39.15459 54.72053 38829 ft 544 kts 104°
2026-05-04 12:17 39.13846 54.81570 38843 ft 544 kts 104°
2026-05-04 12:18 39.12227 54.91081 38823 ft 543 kts 104°
2026-05-04 12:18 39.10601 55.00582 38816 ft 543 kts 104°
2026-05-04 12:19 39.08966 55.10086 38831 ft 544 kts 104°
2026-05-04 12:19 39.07321 55.19594 38837 ft 544 kts 104°
2026-05-04 12:20 39.05678 55.29048 38842 ft 544 kts 104°
2026-05-04 12:20 39.04020 55.38541 38831 ft 544 kts 104°
2026-05-04 12:21 39.02351 55.48040 38839 ft 545 kts 104°
2026-05-04 12:21 39.00675 55.57541 38846 ft 545 kts 104°
2026-05-04 12:22 38.98991 55.67044 38852 ft 545 kts 104°
2026-05-04 12:22 38.97302 55.76556 38846 ft 545 kts 104°
2026-05-04 12:23 38.95608 55.86044 38853 ft 545 kts 104°
2026-05-04 12:23 38.93915 55.95471 38848 ft 545 kts 104°
2026-05-04 12:24 38.92204 56.04948 38842 ft 544 kts 104°
2026-05-04 12:24 38.90486 56.14422 38834 ft 545 kts 104°
2026-05-04 12:25 38.88759 56.23892 38839 ft 545 kts 104°
2026-05-04 12:25 38.87024 56.33365 38844 ft 545 kts 104°
2026-05-04 12:26 38.85279 56.42842 38849 ft 545 kts 104°
2026-05-04 12:26 38.83541 56.52240 38834 ft 544 kts 104°
2026-05-04 12:27 38.81785 56.61689 38841 ft 544 kts 104°
2026-05-04 12:27 38.80019 56.71142 38841 ft 544 kts 104°
2026-05-04 12:28 38.78250 56.80570 38837 ft 544 kts 105°
2026-05-04 12:28 38.76470 56.90005 38832 ft 544 kts 105°
2026-05-04 12:29 38.74686 56.99423 38838 ft 544 kts 105°
2026-05-04 12:29 38.72902 57.08799 38832 ft 545 kts 105°
2026-05-04 12:30 38.71096 57.18237 38841 ft 545 kts 105°
2026-05-04 12:30 38.69286 57.27658 38821 ft 545 kts 105°
2026-05-04 12:31 38.67466 57.37084 38834 ft 546 kts 105°
2026-05-04 12:31 38.65636 57.46520 38835 ft 546 kts 105°
2026-05-04 12:32 38.62898 57.60557 38815 ft 546 kts 105°
2026-05-04 12:33 38.60582 57.69788 38822 ft 544 kts 115°
2026-05-04 12:33 38.57489 57.78582 38824 ft 543 kts 116°
2026-05-04 12:34 38.54404 57.87413 38830 ft 544 kts 116°
2026-05-04 12:34 38.51319 57.96217 38837 ft 544 kts 116°
2026-05-04 12:35 38.48219 58.05024 38836 ft 544 kts 116°
2026-05-04 12:35 38.45110 58.13826 38834 ft 543 kts 116°
2026-05-04 12:36 38.42002 58.22599 38820 ft 543 kts 116°
2026-05-04 12:36 38.38665 58.31142 38827 ft 539 kts 124°
2026-05-04 12:37 38.34785 58.39321 38824 ft 539 kts 124°
2026-05-04 12:37 38.30927 58.47518 38825 ft 539 kts 124°
2026-05-04 12:38 38.27064 58.55699 38838 ft 539 kts 124°
2026-05-04 12:38 38.23186 58.63889 38838 ft 540 kts 124°
2026-05-04 12:39 38.19296 58.72082 38837 ft 540 kts 124°
2026-05-04 12:39 38.15403 58.80260 38823 ft 541 kts 124°
2026-05-04 12:40 38.11507 58.88424 38835 ft 542 kts 124°
2026-05-04 12:40 38.07614 58.96562 38842 ft 543 kts 124°
2026-05-04 12:41 38.03685 59.04753 38837 ft 543 kts 124°
2026-05-04 12:41 37.99745 59.12948 38846 ft 544 kts 124°
2026-05-04 12:42 37.95806 59.21121 38849 ft 544 kts 124°
2026-05-04 12:42 37.91851 59.29305 38854 ft 544 kts 124°
2026-05-04 12:43 37.87720 59.37317 38860 ft 542 kts 131°
2026-05-04 12:43 37.83140 59.44881 38859 ft 541 kts 130°
2026-05-04 12:44 37.78612 59.52412 38855 ft 541 kts 130°
2026-05-04 12:44 37.74052 59.59976 38862 ft 541 kts 130°
2026-05-04 12:45 37.69480 59.67535 38871 ft 541 kts 130°
2026-05-04 12:45 37.64908 59.75079 38863 ft 541 kts 130°
2026-05-04 12:46 37.60332 59.82612 38868 ft 541 kts 130°
2026-05-04 12:46 37.55758 59.90122 38883 ft 541 kts 130°
2026-05-04 12:47 37.51174 59.97635 38877 ft 541 kts 130°
2026-05-04 12:47 37.46585 60.05138 38890 ft 541 kts 130°
2026-05-04 12:48 37.41987 60.12638 38898 ft 541 kts 130°
2026-05-04 12:48 37.37384 60.20130 38904 ft 542 kts 130°
2026-05-04 12:49 37.32800 60.27574 38905 ft 542 kts 130°
2026-05-04 12:49 37.28149 60.35108 38911 ft 542 kts 130°
2026-05-04 12:50 37.23548 60.42548 38923 ft 543 kts 130°
2026-05-04 12:50 37.18915 60.50019 38930 ft 544 kts 130°
2026-05-04 12:51 37.14260 60.57512 38933 ft 544 kts 130°
2026-05-04 12:51 37.09596 60.65001 38935 ft 545 kts 130°
2026-05-04 12:52 37.04939 60.72462 38928 ft 544 kts 130°
2026-05-04 12:52 37.00270 60.79927 38939 ft 545 kts 130°
2026-05-04 12:53 36.95628 60.87441 38943 ft 546 kts 128°
2026-05-04 12:53 36.91302 60.95255 38934 ft 547 kts 126°
2026-05-04 12:54 36.87713 61.01748 38935 ft 547 kts 127°
2026-05-04 12:54 36.83345 61.09528 38937 ft 547 kts 127°
2026-05-04 12:55 36.78957 61.17291 38930 ft 547 kts 127°
2026-05-04 12:55 36.74564 61.25042 38919 ft 547 kts 127°
2026-05-04 12:56 36.70165 61.32789 38917 ft 548 kts 127°
2026-05-04 12:56 36.65788 61.40478 38920 ft 548 kts 127°
2026-05-04 12:57 36.61369 61.48218 38911 ft 548 kts 128°
2026-05-04 12:57 36.56877 61.55881 38909 ft 548 kts 128°
2026-05-04 12:58 36.52368 61.63540 38911 ft 549 kts 128°
2026-05-04 12:58 36.47856 61.71209 38892 ft 549 kts 128°
2026-05-04 12:59 36.43345 61.78862 38906 ft 549 kts 128°
2026-05-04 12:59 36.38819 61.86524 38911 ft 550 kts 128°
2026-05-04 13:00 36.34326 61.94112 38920 ft 550 kts 128°
2026-05-04 13:00 36.29786 62.01763 38905 ft 551 kts 128°
2026-05-04 13:01 36.25240 62.09408 38910 ft 551 kts 128°
2026-05-04 13:01 36.20685 62.17051 38914 ft 551 kts 128°
2026-05-04 13:02 36.16121 62.24690 38905 ft 552 kts 128°
2026-05-04 13:02 36.11552 62.32323 38910 ft 552 kts 128°
2026-05-04 13:03 36.07002 62.39905 38911 ft 553 kts 128°
2026-05-04 13:03 36.02410 62.47543 38901 ft 553 kts 128°
2026-05-04 13:04 35.97808 62.55178 38906 ft 554 kts 128°
2026-05-04 13:04 35.93200 62.62808 38920 ft 554 kts 128°
2026-05-04 13:05 35.88586 62.70429 38913 ft 553 kts 128°
2026-05-04 13:05 35.84000 62.77988 38900 ft 553 kts 128°
2026-05-04 13:06 35.79382 62.85583 38900 ft 554 kts 128°
2026-05-04 13:06 35.74761 62.93167 38910 ft 553 kts 128°
2026-05-04 13:07 35.70138 63.00737 38916 ft 553 kts 128°
2026-05-04 13:07 35.65521 63.08281 38923 ft 553 kts 128°
2026-05-04 13:08 35.60912 63.15794 38921 ft 553 kts 128°
2026-05-04 13:08 35.56279 63.23317 38916 ft 552 kts 128°
2026-05-04 13:09 35.51597 63.30765 38898 ft 551 kts 129°
2026-05-04 13:09 35.46899 63.38226 38909 ft 552 kts 129°
2026-05-04 13:10 35.42200 63.45685 38925 ft 552 kts 128°
2026-05-04 13:10 35.37499 63.53138 38910 ft 553 kts 128°
2026-05-04 13:11 35.32786 63.60594 38924 ft 553 kts 128°
2026-05-04 13:11 35.28066 63.68048 38950 ft 554 kts 128°
2026-05-04 13:12 35.23391 63.75479 38976 ft 555 kts 128°
2026-05-04 13:12 35.18673 63.82962 38951 ft 555 kts 128°
2026-05-04 13:13 35.13942 63.90442 38955 ft 556 kts 128°
2026-05-04 13:13 35.09201 63.97921 38967 ft 556 kts 128°
2026-05-04 13:14 35.04453 64.05394 38969 ft 556 kts 129°
2026-05-04 13:14 34.99707 64.12847 38966 ft 557 kts 128°
2026-05-04 13:15 34.94955 64.20298 38976 ft 556 kts 128°
2026-05-04 13:15 34.90230 64.27691 38978 ft 556 kts 128°
2026-05-04 13:16 34.85467 64.35123 38977 ft 556 kts 129°
2026-05-04 13:16 34.80707 64.42539 38971 ft 555 kts 128°
2026-05-04 13:17 34.75947 64.49933 38986 ft 555 kts 129°
2026-05-04 13:17 34.71178 64.57329 38985 ft 557 kts 129°
2026-05-04 13:18 34.66392 64.64737 38973 ft 557 kts 129°
2026-05-04 13:18 34.61598 64.72141 38983 ft 559 kts 129°
2026-05-04 13:19 34.56814 64.79516 38975 ft 560 kts 129°
2026-05-04 13:19 34.51988 64.86940 38959 ft 561 kts 129°
2026-05-04 13:20 34.47141 64.94376 38977 ft 562 kts 129°
2026-05-04 13:20 34.42275 65.01805 38987 ft 563 kts 129°
2026-05-04 13:21 34.37413 65.09215 38991 ft 564 kts 129°
2026-05-04 13:21 34.32533 65.16641 38968 ft 563 kts 129°
2026-05-04 13:22 34.27658 65.24045 38964 ft 562 kts 129°
2026-05-04 13:22 34.22779 65.31436 38984 ft 562 kts 129°
2026-05-04 13:23 34.17903 65.38810 38974 ft 561 kts 129°
2026-05-04 13:23 34.13062 65.46115 38942 ft 561 kts 129°
2026-05-04 13:24 34.08178 65.53470 38942 ft 562 kts 129°
2026-05-04 13:24 34.03279 65.60842 38946 ft 563 kts 129°
2026-05-04 13:25 33.95936 65.71886 38960 ft 562 kts 129°
2026-05-04 13:25 33.91042 65.79230 38950 ft 561 kts 129°
2026-05-04 13:26 33.86187 65.86492 38936 ft 559 kts 129°
2026-05-04 13:26 33.81314 65.93771 38939 ft 557 kts 129°
2026-05-04 13:27 33.76451 66.01017 38900 ft 557 kts 129°
2026-05-04 13:27 33.71587 66.08259 38895 ft 559 kts 129°
2026-05-04 13:28 33.66674 66.15537 38895 ft 561 kts 129°
2026-05-04 13:28 33.61772 66.22799 38859 ft 559 kts 129°
2026-05-04 13:29 33.56917 66.29982 38864 ft 558 kts 129°
2026-05-04 13:29 33.52027 66.37199 38860 ft 557 kts 129°
2026-05-04 13:30 33.47140 66.44395 38859 ft 557 kts 129°
2026-05-04 13:30 33.42245 66.51571 38856 ft 556 kts 130°
2026-05-04 13:31 33.37339 66.58726 38882 ft 557 kts 129°
2026-05-04 13:31 33.31715 66.65022 38908 ft 553 kts 150°
2026-05-04 13:32 33.25234 66.69984 38928 ft 554 kts 150°
2026-05-04 13:32 33.18749 66.74960 38920 ft 554 kts 149°
2026-05-04 13:33 33.12281 66.79977 38928 ft 555 kts 149°
2026-05-04 13:33 33.05797 66.85010 38934 ft 556 kts 149°
2026-05-04 13:34 32.99294 66.90047 38920 ft 558 kts 149°
2026-05-04 13:34 32.92791 66.95071 38932 ft 557 kts 149°
2026-05-04 13:35 32.83018 67.02603 38878 ft 558 kts 149°
2026-05-04 13:36 32.76552 67.07575 38866 ft 557 kts 149°
2026-05-04 13:36 32.70035 67.12577 38828 ft 558 kts 150°
2026-05-04 13:37 32.63507 67.17580 38820 ft 559 kts 149°
2026-05-04 13:37 32.56962 67.22587 38815 ft 560 kts 149°
2026-05-04 13:38 32.50421 67.27582 38840 ft 558 kts 149°
2026-05-04 13:38 32.43897 67.32556 38827 ft 557 kts 149°
2026-05-04 13:39 32.37381 67.37514 38823 ft 556 kts 149°
2026-05-04 13:39 32.30861 67.42467 38779 ft 557 kts 150°
2026-05-04 13:40 32.24318 67.47428 38793 ft 558 kts 150°
2026-05-04 13:40 32.17812 67.52352 38804 ft 560 kts 150°
2026-05-04 13:41 32.11241 67.57318 38829 ft 561 kts 150°
2026-05-04 13:41 32.04656 67.62286 38842 ft 562 kts 150°
2026-05-04 13:42 31.94755 67.69739 38851 ft 563 kts 150°
2026-05-04 13:42 31.88149 67.74701 38854 ft 563 kts 150°
2026-05-04 13:43 31.81539 67.79658 38848 ft 563 kts 150°
2026-05-04 13:43 31.74931 67.84605 38845 ft 563 kts 150°
2026-05-04 13:44 31.68327 67.89540 38803 ft 563 kts 150°
2026-05-04 13:44 31.61761 67.94438 38813 ft 563 kts 150°
2026-05-04 13:45 31.55138 67.99370 38815 ft 564 kts 150°
2026-05-04 13:45 31.48501 68.04304 38821 ft 564 kts 150°
2026-05-04 13:46 31.42981 68.08401 38807 ft 566 kts 150°
2026-05-04 13:46 31.36323 68.13335 38822 ft 567 kts 150°
2026-05-04 13:47 31.29641 68.18279 38839 ft 568 kts 150°
2026-05-04 13:47 31.22953 68.23219 38835 ft 569 kts 150°
2026-05-04 13:48 31.16261 68.28154 38832 ft 570 kts 150°
2026-05-04 13:48 31.09552 68.33092 38820 ft 570 kts 150°
2026-05-04 13:49 31.02877 68.37998 38811 ft 570 kts 150°
2026-05-04 13:49 30.96167 68.42919 38778 ft 570 kts 151°
2026-05-04 13:50 30.89445 68.47840 38776 ft 570 kts 151°
2026-05-04 13:50 30.82715 68.52764 38774 ft 571 kts 151°
2026-05-04 13:51 30.75985 68.57676 38758 ft 571 kts 150°
2026-05-04 13:51 30.69253 68.62582 38752 ft 571 kts 150°